Home > Weather > Abu Dhabi > Past weeks

Flag for United Arab Emirates Past Weather in Abu Dhabi, Abu Dhabi, United Arab Emirates — Yesterday and Last 2 Weeks

Now
90 °F

Clear.


Feels Like: 111 °F
Forecast: 89 / 101 °F
Wind: 5 mph from Northeast

Location: Abu Dhabi Bateen Airport

Current Time: Jul 1, 2016 at 1:26:49 AM

Latest Report: Jul 1, 2016 at 1:00 AM


Visibility: 5 mi

Pressure: 29.45 "Hg

Humidity: 79%

Dew Point: 82 °F

Location of Abu DhabiLocation

Past Weather in Abu Dhabi — Graph

°F

Abu Dhabi Temperature Yesterday

Maximum temperature yesterday: 109 °F (at 1:00 PM)
Minimum temperature yesterday: 90 °F (at 9:00 PM)
Average temperature yesterday: 97 °F

High & Low Weather Summary for the Past Weeks

 TemperatureHumidityPressure
High115 °F (Jun 25, 2:00 PM)84% (Jun 16, 6:00 AM)29.62 "Hg (Jun 16, 6:00 AM)
Low79 °F (Jun 22, 9:00 AM)10% (Jun 25, 2:00 PM)29.36 "Hg (Jun 27, 5:00 PM)
Average95 °F55%29.48 "Hg
* Reported Jun 16 12:00 AM — Jul 1 12:00 AM, Abu Dhabi, Weather by CustomWeather, © 2016

Note: Actual official high and low records may vary slightly from our data, if they occured in-between our weather recording intervals... More about our weather records

Advertising

Abu Dhabi Weather History for the Previous 24 Hours

Scroll right to see more
 ConditionsComfort  
Time TempWeatherWind HumidityBarometerVisibility
12:00 AM
Fri, Jul 1
91 °FClear.6 mph75%29.45 "Hg5 mi
11:00 PM
Thu, Jun 30
93 °FClear.7 mph67%29.47 "Hg5 mi
10:00 PM93 °FClear.9 mph67%29.45 "Hg5 mi
9:00 PM90 °FClear.8 mph79%29.45 "Hg5 mi
8:00 PM95 °FPassing clouds.6 mph60%29.45 "HgN/A
7:00 PM99 °FSunny.9 mph44%29.45 "Hg10 mi
6:00 PM99 °FSunny.9 mph57%29.45 "Hg10 mi
5:00 PM100 °FClear.13 mph53%29.45 "Hg5 mi
4:00 PM106 °FClear.13 mph38%29.45 "Hg4 mi
3:00 PM106 °FClear.15 mph45%29.45 "Hg4 mi
2:00 PM109 °FClear.6 mph23%29.45 "Hg5 mi
1:00 PM109 °FClear.7 mph27%29.47 "Hg4 mi
12:00 PM106 °FClear.6 mph30%29.50 "Hg4 mi
11:00 AM102 °FDuststorm.5 mph33%29.50 "Hg3 mi
10:00 AM100 °FDuststorm.9 mph35%29.50 "Hg2 mi
9:00 AM99 °FDuststorm.9 mph39%29.50 "Hg2 mi
8:00 AM95 °FPassing clouds.3 mph56%29.50 "HgN/A
7:00 AM93 °FSunny.6 mph63%29.50 "Hg10 mi
6:00 AM91 °FPassing clouds.6 mph71%29.50 "HgN/A
5:00 AM91 °FPassing clouds.7 mph71%29.47 "HgN/A
4:00 AM91 °FPassing clouds.7 mph71%29.47 "HgN/A
3:00 AM91 °FClear.7 mph75%29.47 "Hg5 mi
2:00 AM93 °FClear.6 mph67%29.47 "Hg5 mi
1:00 AM93 °FClear.5 mph67%29.47 "Hg5 mi
Weather by CustomWeather, © 2016

See weather overviewHow to use our weather pages